Weather History for KOZR - November, 2012

Change the Weather History Date:

Monday, November 12, 2012

  Actual Average Record
Temperature  
Mean Temperature 64 °F -  
Max Temperature 75 °F 67 °F 82 °F (2003)
Min Temperature 53 °F 45 °F 30 °F (2011)
Degree Days  
Heating Degree Days 1    
Growing Degree Days 14 (Base 50)    
Moisture  
Dew Point 58 °F    
Average Humidity 88    
Maximum Humidity 96    
Minimum Humidity 60    
Precipitation  
Precipitation 0.00 in - - ()
Sea Level Pressure  
Sea Level Pressure 30.22 in    
Wind  
Wind Speed 9 mph (NW)    
Max Wind Speed 16 mph    
Max Gust Speed 22 mph    
Visibility 9 miles    
Events Rain    
Averages and records for this station are not official NWS values.
T = Trace of Precipitation, MM = Missing Value Source: NWS Daily Summary

Daily Weather History Graph

Daily Weather History Graph

Search for Another Location

Airport or City:

Trip Planner

Search our weather history database for the weather conditions in past years. The results will help you decide how hot, cold, wet, or windy it might be!

Date:

Astronomy

Nov. 12, 2012 Rise Set
Actual Time 6:08 AM CST 4:45 PM CST
Civil Twilight 5:42 AM CST 5:11 PM CST
Nautical Twilight 5:13 AM CST 5:40 PM CST
Astronomical Twilight 4:44 AM CST 6:09 PM CST
Moon 4:36 AM CST (11/12) 3:48 PM CST (11/12)
Length of Visible Light 11h 28m
Length of Day
10h 37m
Waning Crescent, 2% of the Moon is Illuminated
Nov 12
Waning Crescent
Nov 13
New
Nov 20
First Quarter
Nov 28
Full
Dec 6
Last Quarter

Hourly Weather History & Observations

Time (CST) Temp. Dew Point Humidity Pressure Visibility Wind Dir Wind Speed Gust Speed Precip Events Conditions
12:55 AM 63.3 °F 56.5 °F 78% 30.23 in 10.0 mi ESE 8.1 mph - N/A   Mostly Cloudy
1:55 AM 63.1 °F 57.0 °F 80% 30.22 in 10.0 mi ESE 6.9 mph - N/A   Mostly Cloudy
2:55 AM 61.3 °F 56.8 °F 85% 30.21 in 10.0 mi ESE 8.1 mph - N/A   Scattered Clouds
3:55 AM 61.0 °F 57.2 °F 87% 30.20 in 9.0 mi SE 6.9 mph - N/A   Clear
4:55 AM 60.4 °F 57.4 °F 90% 30.21 in 8.0 mi ESE 6.9 mph - N/A   Clear
5:55 AM 59.9 °F 57.4 °F 91% 30.22 in 9.0 mi ESE 6.9 mph - N/A   Clear
6:55 AM 60.3 °F 57.9 °F 92% 30.22 in 6.0 mi SE 10.4 mph - N/A   Clear
7:55 AM 64.2 °F 59.9 °F 86% 30.23 in 5.0 mi SSE 10.4 mph - N/A   Haze
8:55 AM 68.0 °F 61.3 °F 79% 30.24 in 6.0 mi SSE 9.2 mph - N/A   Haze
9:55 AM 72.5 °F 61.3 °F 68% 30.23 in 5.0 mi SSE 8.1 mph - N/A   Haze
10:55 AM 74.3 °F 61.3 °F 64% 30.23 in 4.0 mi South 8.1 mph - N/A   Haze
11:55 AM 75.7 °F 61.0 °F 60% 30.21 in 6.0 mi SSW 11.5 mph - N/A   Haze
12:55 PM 75.9 °F 61.2 °F 60% 30.18 in 10.0 mi South 8.1 mph - N/A   Scattered Clouds
1:55 PM 75.0 °F 60.1 °F 60% 30.17 in 10.0 mi South 8.1 mph - N/A   Overcast
2:04 PM 75.2 °F 60.8 °F 61% 30.17 in 10.0 mi SSW 10.4 mph - N/A   Light Drizzle
2:15 PM 73.4 °F 60.8 °F 65% 30.17 in 10.0 mi SSW 10.4 mph - N/A   Overcast
2:19 PM 73.4 °F 60.8 °F 65% 30.17 in 10.0 mi SSW 8.1 mph - N/A Rain Light Rain
2:55 PM 70.2 °F 63.9 °F 80% 30.18 in 10.0 mi SW 5.8 mph - N/A Rain Light Rain
3:00 PM 69.8 °F 64.4 °F 83% 30.18 in 10.0 mi WSW 5.8 mph - N/A   Overcast
3:06 PM 69.8 °F 64.4 °F 83% 30.18 in 10.0 mi WSW 6.9 mph - N/A   Light Drizzle
3:25 PM 68.0 °F 64.4 °F 88% 30.18 in 10.0 mi WSW 3.5 mph - N/A   Overcast
3:26 PM 68.0 °F 64.4 °F 88% 30.18 in 10.0 mi WSW 3.5 mph - N/A   Light Drizzle
3:41 PM 68.0 °F 64.4 °F 88% 30.18 in 10.0 mi Calm Calm - N/A   Overcast
3:55 PM 67.8 °F 65.1 °F 91% 30.19 in 10.0 mi WNW 10.4 mph - N/A   Light Drizzle
4:20 PM 64.4 °F 62.6 °F 94% 30.19 in 10.0 mi NW 9.2 mph - N/A   Overcast
4:32 PM 64.4 °F 62.6 °F 94% 30.19 in 10.0 mi NW 11.5 mph - N/A   Overcast
4:38 PM 64.4 °F 62.6 °F 94% 30.19 in 10.0 mi NW 11.5 mph - N/A   Mostly Cloudy
4:43 PM 64.4 °F 62.6 °F 94% 30.19 in 10.0 mi NW 12.7 mph - N/A   Overcast
4:55 PM 63.3 °F 61.3 °F 93% 30.20 in 10.0 mi NW 12.7 mph 19.6 mph N/A   Overcast
4:58 PM 62.6 °F 60.8 °F 94% 30.20 in 10.0 mi NNW 10.4 mph 19.6 mph N/A   Overcast
5:00 PM 62.6 °F 60.8 °F 94% 30.20 in 10.0 mi NW 10.4 mph 19.6 mph N/A   Overcast
5:14 PM 62.6 °F 60.8 °F 94% 30.20 in 10.0 mi NW 11.5 mph - N/A   Light Drizzle
5:20 PM 62.6 °F 60.8 °F 94% 30.21 in 10.0 mi NNW 12.7 mph - N/A   Light Drizzle
5:21 PM 62.6 °F 60.8 °F 94% 30.21 in 10.0 mi NNW 10.4 mph - N/A   Light Drizzle
5:27 PM 62.6 °F 59.0 °F 88% 30.21 in 9.0 mi NW 12.7 mph - N/A Rain Light Rain
5:38 PM 60.8 °F 59.0 °F 94% 30.21 in 7.0 mi NNW 16.1 mph 21.9 mph N/A Rain Light Rain
5:42 PM 60.8 °F 59.0 °F 94% 30.22 in 7.0 mi NW 13.8 mph 21.9 mph N/A Rain Light Rain
5:44 PM 60.8 °F 59.0 °F 94% 30.22 in 7.0 mi NW 16.1 mph - N/A Rain Light Rain
5:46 PM 60.8 °F 59.0 °F 94% 30.22 in 7.0 mi NNW 16.1 mph - N/A Rain Light Rain
5:55 PM 60.8 °F 59.2 °F 94% 30.22 in 6.0 mi NNW 15.0 mph - N/A Rain Light Rain
5:56 PM 60.8 °F 59.0 °F 94% 30.22 in 6.0 mi NW 13.8 mph - N/A Rain Light Rain
6:04 PM 60.8 °F 59.0 °F 94% 30.22 in 8.0 mi NW 9.2 mph - N/A Rain Light Rain
6:08 PM 60.8 °F 59.0 °F 94% 30.23 in 9.0 mi WNW 8.1 mph - N/A Rain Light Rain
6:22 PM 60.8 °F 59.0 °F 94% 30.22 in 8.0 mi NW 11.5 mph 17.3 mph N/A Rain Light Rain
6:34 PM 60.8 °F 59.0 °F 94% 30.23 in 6.0 mi NW 11.5 mph - N/A Rain Light Rain
6:55 PM 59.4 °F 58.1 °F 96% 30.25 in 10.0 mi NW 11.5 mph 18.4 mph N/A Rain Light Rain
7:14 PM 59.0 °F 57.2 °F 94% 30.25 in 9.0 mi NW 9.2 mph - N/A Rain Light Rain
7:18 PM 59.0 °F 57.2 °F 94% 30.25 in 8.0 mi NW 11.5 mph - N/A Rain Light Rain
7:55 PM 57.2 °F 55.8 °F 95% 30.26 in 7.0 mi NW 13.8 mph - N/A Rain Rain
8:47 PM 55.4 °F 53.6 °F 94% 30.26 in 7.0 mi NNW 12.7 mph - N/A Rain Light Rain
8:55 PM 55.6 °F 54.1 °F 95% 30.26 in 8.0 mi NNW 11.5 mph - N/A Rain Rain
9:55 PM 55.4 °F 54.0 °F 95% 30.26 in 10.0 mi NNW 9.2 mph - N/A Rain Light Rain
10:33 PM 55.4 °F 53.6 °F 94% 30.26 in 10.0 mi NNW 12.7 mph - N/A   Light Drizzle
10:55 PM 54.7 °F 52.7 °F 93% 30.26 in 10.0 mi North 11.5 mph - N/A Rain Light Rain
11:04 PM 55.4 °F 51.8 °F 88% 30.26 in 10.0 mi North 11.5 mph - N/A Rain Light Rain
11:05 PM 55.4 °F 51.8 °F 88% 30.26 in 10.0 mi North 11.5 mph - N/A Rain Light Rain
11:15 PM 55.4 °F 51.8 °F 88% 30.26 in 10.0 mi North 11.5 mph - N/A   Overcast
11:36 PM 53.6 °F 51.8 °F 94% 30.26 in 10.0 mi NW 6.9 mph - N/A   Overcast
11:42 PM 53.6 °F 51.8 °F 94% 30.26 in 10.0 mi NNW 9.2 mph - N/A   Overcast
11:49 PM 53.6 °F 51.8 °F 94% 30.25 in 10.0 mi NNW 11.5 mph - N/A   Overcast
11:53 PM 53.6 °F 51.8 °F 94% 30.25 in 10.0 mi NNW 11.5 mph - N/A   Overcast
11:55 PM 54.0 °F 52.0 °F 93% 30.25 in 10.0 mi NNW 10.4 mph - N/A   Overcast
11:56 PM 53.6 °F 51.8 °F 94% 30.25 in 10.0 mi NNW 10.4 mph - N/A   Overcast
11:57 PM 53.6 °F 51.8 °F 94% 30.25 in 10.0 mi NNW 11.5 mph - N/A   Overcast